Location: Fairview
(40.8165°N, 122.7667°W)
Time: 09:08:15
(UTC+00:00)

DMSP B5D2-2 - Pass Details

Date: 13 June 2024
Orbit: 786 x 804 km, 98.3° (Epoch: 18 July)

Event Time Altitude Azimuth Distance (km) Brightness Sun altitude
Rises 11:58:47 0° 166° (SSE) 3,297 7.0 -7.0°
Reaches altitude 10° 12:01:06 10° 166° (SSE) 2,372 6.3 -6.7°
Maximum altitude 12:06:22 88° 257° (WSW) 810 4.2 -5.9°
Drops below altitude 10° 12:11:40 10° 347° (NNW) 2,391 6.9 -5.1°
Sets 12:14:01 0° 347° (NNW) 3,326 7.6 -4.7°
